Wind_Speed
41 43 44 46 49 50 51 53 54 53 51 50 50 50 50 49 47 46 47 48 49 50 50 49 51 50 50 50 49 49 51 60 60 61 56 53 51 51 55 60 63 58 55
45 47 50 51 53 54 54 56 57 58 59 57 59 59 58 58 56 53 53 52 51 50 51 50 52 52 53 53 52 53 52 54 59 67 65 61 61 61 66 60 55 54 56
52 54 55 56 57 59 61 62 63 65 67 69 69 68 67 66 66 65 63 61 59 57 55 54 53 52 52 51 50 55 54 53 56 58 64 68 74 65 62 62 61 59 59
58 60 61 62 65 67 69 68 69 70 70 73 75 74 72 70 66 66 66 67 64 63 61 58 56 54 54 52 51 53 55 56 56 59 58 66 69 72 70 66 57 57 64
60 65 67 69 70 72 68 64 63 64 63 64 64 65 63 62 62 61 57 56 56 58 59 59 57 56 54 52 52 54 56 55 56 59 59 60 62 68 70 70 66 65 65
66 70 73 73 73 68 64 64 66 65 64 65 64 62 61 60 59 56 54 54 53 55 52 53 55 54 53 50 50 50 49 49 46 45 56 60 63 60 54 54 57 58 61
67 69 74 70 64 63 65 67 64 63 61 60 61 59 59 56 54 53 53 50 53 50 46 45 45 43 46 47 45 42 35 42 38 44 52 50 53 52 58 54 61 63 65
74 75 69 65 61 64 63 62 64 56 57 60 66 68 64 58 59 60 57 57 52 48 40 36 37 35 35 35 37 38 44 49 38 39 47 59 55 55 55 55 54 58 56
78 72 66 64 61 64 59 43 42 45 63 67 59 56 56 57 57 51 47 50 50 46 42 38 36 37 35 36 42 45 41 43 45 45 47 48 49 52 55 55 57 61 62
75 66 66 63 65 63 55 28 24 25 50 58 54 41 21 20 29 31 33 42 44 48 42 37 36 37 37 40 41 40 47 40 48 50 50 45 45 49 50 53 56 56 59
71 69 68 66 64 57 31 23 23 30 43 51 43 36 31 22 20 17 28 37 46 44 39 37 37 41 42 42 45 43 42 43 40 39 41 48 44 43 49 54 52 51 52
69 68 67 67 60 40 26 22 27 25 29 56 51 29 28 29 23 25 37 31 35 46 41 37 38 43 44 42 40 36 38 41 40 43 47 47 44 47 50 54 57 55 60
70 71 67 63 44 24 25 29 34 28 36 35 32 39 44 46 33 39 33 29 36 38 37 35 36 40 49 43 44 45 47 46 45 46 50 50 50 50 53 54 56 59 60
74 70 64 48 28 22 23 29 30 24 23 26 32 35 36 25 24 34 32 32 36 37 35 33 35 37 42 44 41 43 45 46 46 50 52 55 53 54 57 58 58 60 59
70 59 48 34 26 19 19 24 25 25 27 30 26 25 24 18 19 28 29 33 31 31 31 31 32 35 33 40 44 47 50 49 45 43 43 46 48 51 50 49 50 51 55
52 43 35 25 23 22 24 25 23 23 26 28 22 19 22 19 21 19 24 29 29 29 28 31 33 34 35 36 37 38 38 39 37 34 33 34 36 40 43 46 50 53 55
33 29 22 18 17 22 27 26 23 26 35 20 19 19 14 11 14 17 19 25 29 31 31 31 34 37 39 38 38 42 35 31 32 32 34 37 36 38 42 47 51 55 58
28 22 15 16 15 21 16 14 14 19 18 9 14 13 9 11 13 14 17 21 23 25 28 28 29 35 34 31 30 29 29 29 27 25 26 28 31 36 43 47 48 50 52
28 18 15 16 18 15 14 12 12 17 11 12 13 13 10 11 13 15 20 21 19 17 17 18 21 22 23 25 26 26 25 25 24 25 24 24 30 32 34 37 40 41 43
15 14 10 12 13 14 11 10 14 13 14 14 11 12 12 8 11 10 13 12 15 18 18 18 18 19 19 21 22 23 26 30 31 29 27 26 29 30 33 31 27 30 32
15 5 5 5 6 9 14 12 14 20 19 18 15 14 11 22 24 24 15 17 9 12 17 18 17 17 17 21 25 26 27 27 28 31 31 29 27 31 34 31 30 34 34
15 10 12 9 11 10 15 16 17 21 22 24 23 22 26 23 28 29 23 24 18 19 19 24 22 19 19 22 25 26 29 32 34 33 31 30 30 33 33 27 32 40 37
22 23 19 19 16 13 24 21 24 27 26 27 29 28 29 30 28 28 29 26 25 28 31 33 36 35 35 35 33 33 35 37 37 32 32 31 36 29 32 25 32 36 41
24 25 27 25 25 29 21 29 31 31 32 32 33 34 32 33 33 31 33 32 35 35 35 33 33 35 37 41 44 42 35 38 43 40 36 38 30 26 29 14 29 39 50
22 26 26 29 33 35 31 33 32 36 33 38 37 36 36 38 34 32 33 37 44 41 42 42 40 42 45 47 44 43 46 46 48 44 43 35 34 37 42 44 51 48 43
25 26 29 34 35 36 39 39 39 41 43 39 39 39 43 43 44 43 41 39 41 42 50 46 47 48 50 51 41 45 56 53 41 40 44 50 49 54 54 57 58 58 53
Wind_Direction
302 302 301 300 300 299 298 296 295 293 290 287 285 282 280 278 274 271 267 263 261 259 256 256 255 255 252 251 249 246 240 239 238 239 246 243 240 245 252 260 265 265 264
304 303 301 300 298 297 296 295 294 292 290 288 287 285 282 280 277 274 272 269 265 262 260 258 255 254 254 251 250 249 246 243 240 241 242 243 241 247 250 255 257 263 266
306 304 302 302 301 299 297 294 291 289 289 287 285 283 281 280 278 276 274 272 269 265 262 258 258 254 255 254 253 251 248 245 247 248 245 242 242 246 249 252 259 261 268
306 305 304 303 301 302 297 292 288 285 283 282 282 281 281 280 278 275 272 271 268 265 263 261 259 257 256 256 254 251 250 249 251 249 250 246 245 245 247 251 259 265 263
306 304 304 304 303 302 299 296 295 293 290 286 283 282 280 277 275 274 273 270 268 265 262 261 260 260 257 258 258 256 254 254 251 249 248 250 248 248 250 252 258 260 265
307 306 305 304 304 302 303 301 299 298 293 289 285 283 279 277 274 272 270 270 267 264 262 261 261 261 260 259 261 259 257 255 252 249 258 248 246 251 250 253 261 262 263
303 307 310 309 308 308 308 307 306 301 297 291 286 283 279 274 272 269 270 271 267 263 260 261 260 260 259 258 257 256 249 251 256 235 236 254 244 252 246 248 261 263 269
309 311 310 309 308 309 311 311 309 308 312 301 286 277 275 272 270 268 264 266 263 261 255 254 249 249 251 248 235 237 232 244 243 240 235 241 246 248 247 248 256 263 264
313 312 311 310 311 312 313 320 314 298 307 309 309 289 275 271 270 269 257 254 250 251 252 252 247 244 239 239 237 242 240 237 239 245 252 250 249 249 251 255 258 261 265
315 312 311 309 313 312 312 295 266 271 288 300 301 291 273 298 272 268 247 252 243 242 246 247 241 231 230 237 242 242 240 239 238 240 245 248 257 255 257 258 257 261 265
311 310 311 311 314 311 301 292 261 265 285 297 300 278 273 301 280 252 256 257 238 235 240 243 234 226 228 232 237 243 241 242 243 246 244 245 252 254 253 254 257 259 266
308 310 311 313 314 304 291 287 273 271 266 282 293 276 291 294 265 210 247 257 238 228 234 238 229 228 229 235 237 245 250 250 253 258 255 252 255 260 262 263 268 272 274
308 308 310 313 308 290 293 296 288 278 278 290 302 289 292 286 257 218 228 230 230 226 229 237 231 231 230 238 246 249 251 252 251 255 259 263 264 265 268 273 276 279 279
307 307 309 307 287 292 303 298 300 298 308 308 304 294 298 284 239 221 223 225 228 227 229 230 232 232 227 231 240 243 248 254 257 263 266 268 268 270 273 276 276 278 279
307 306 305 297 268 280 281 281 291 306 307 314 300 290 279 269 248 241 234 223 222 226 228 230 235 234 237 238 248 251 255 263 267 271 271 271 271 271 274 276 276 277 278
304 300 299 281 268 283 279 281 299 302 295 312 282 283 287 271 257 238 223 225 231 234 237 234 237 234 237 240 247 252 253 265 269 270 267 269 269 272 274 276 276 276 275
300 298 280 279 287 290 280 285 300 311 306 299 302 297 284 264 246 228 231 241 246 243 242 241 237 236 241 248 250 258 264 261 261 263 270 273 276 278 283 283 281 279 280
296 283 274 263 265 279 290 298 300 297 291 286 303 311 308 277 255 241 234 238 240 246 243 240 242 242 244 245 245 258 259 261 264 266 270 278 291 294 288 284 284 284 283
294 264 261 272 258 255 260 267 252 246 247 259 260 287 310 279 267 268 262 250 227 219 220 232 238 235 236 241 245 251 251 247 254 275 277 301 302 301 300 294 291 291 290
263 247 287 282 258 231 234 239 227 221 244 252 256 278 293 319 284 269 252 233 219 217 220 225 230 232 235 238 243 247 249 259 265 271 272 295 316 312 309 303 306 314 307
233 233 314 307 236 248 246 240 236 240 238 232 237 246 246 267 277 265 250 232 224 225 217 208 210 258 258 257 253 251 254 269 279 279 279 292 310 316 314 298 305 317 319
211 209 228 215 223 227 243 244 251 247 248 244 245 230 230 220 250 255 254 248 242 251 243 234 247 260 267 276 272 268 272 283 287 279 279 287 296 306 308 308 312 309 307
200 210 219 205 214 222 240 246 251 244 242 240 242 249 249 244 249 258 256 245 253 250 252 252 257 268 276 281 285 273 278 276 279 278 275 286 292 303 302 288 316 316 305
220 226 226 228 220 224 249 245 249 255 256 251 248 247 246 243 245 253 256 259 260 259 259 260 267 268 269 278 279 272 273 282 288 275 281 287 272 273 312 278 309 292 298
242 241 241 234 229 233 238 247 249 251 254 252 246 246 248 251 254 255 253 254 258 260 261 269 267 268 264 270 269 259 277 286 283 268 273 269 256 276 291 289 295 291 288
257 253 250 248 243 242 242 245 250 256 255 255 257 256 254 257 258 259 256 258 256 249 257 257 255 259 260 265 260 253 276 278 274 262 260 258 267 278 280 281 289 290 291
Height
10890 10887 10883 10879 10875 10871 10868 10864 10860 10857 10855 10852 10850 10848 10847 10846 10845 10845 10844 10845 10847 10848 10850 10852 10854 10856 10858 10860 10862 10864 10867 10869 10871 10872 10877 10881 10884 10886 10887 10887 10888 10891 10895
10879 10875 10871 10867 10863 10858 10854 10850 10846 10841 10837 10836 10832 10830 10829 10827 10827 10827 10826 10827 10829 10831 10831 10834 10836 10837 10840 10843 10846 10848 10852 10854 10858 10859 10863 10866 10869 10871 10874 10875 10876 10877 10881
10866 10861 10857 10853 10848 10844 10839 10834 10828 10824 10819 10815 10813 10811 10809 10807 10807 10806 10807 10807 10808 10810 10812 10813 10815 10818 10821 10823 10826 10830 10835 10838 10842 10844 10848 10849 10854 10857 10861 10863 10863 10866 10868
10851 10845 10842 10838 10832 10827 10820 10814 10808 10803 10800 10794 10789 10787 10786 10785 10784 10783 10784 10785 10787 10788 10790 10793 10795 10799 10802 10805 10808 10812 10816 10820 10823 10827 10828 10831 10836 10842 10845 10848 10851 10853 10853
10841 10832 10824 10820 10813 10805 10797 10792 10788 10782 10779 10773 10769 10765 10764 10764 10763 10762 10764 10764 10766 10766 10769 10773 10778 10780 10785 10788 10791 10794 10799 10802 10805 10808 10811 10815 10820 10825 10830 10833 10838 10839 10841
10825 10816 10809 10802 10793 10785 10779 10774 10769 10764 10758 10753 10750 10747 10745 10744 10743 10743 10744 10746 10747 10748 10752 10756 10760 10763 10766 10770 10773 10778 10783 10786 10791 10796 10795 10801 10806 10811 10814 10820 10823 10824 10826
10815 10806 10792 10779 10773 10767 10761 10755 10748 10743 10737 10733 10728 10725 10724 10724 10724 10726 10728 10729 10730 10732 10737 10740 10744 10747 10749 10754 10758 10762 10767 10770 10776 10782 10785 10789 10794 10798 10802 10808 10810 10810 10811
10792 10781 10773 10766 10759 10752 10745 10740 10730 10722 10716 10711 10704 10702 10702 10704 10704 10704 10707 10711 10714 10718 10724 10726 10730 10733 10736 10740 10744 10749 10755 10758 10763 10767 10773 10776 10780 10785 10788 10791 10796 10798 10797
10770 10760 10752 10746 10742 10735 10730 10723 10719 10709 10695 10690 10684 10680 10680 10682 10682 10681 10684 10690 10696 10704 10709 10713 10717 10721 10725 10729 10733 10738 10741 10747 10751 10756 10760 10765 10770 10772 10774 10779 10782 10783 10781
10753 10744 10736 10729 10724 10716 10712 10706 10695 10690 10685 10683 10675 10672 10670 10670 10668 10668 10673 10675 10681 10689 10696 10700 10704 10709 10714 10719 10721 10726 10732 10738 10741 10746 10751 10754 10757 10759 10761 10764 10767 10768 10767
10734 10726 10719 10712 10707 10699 10698 10695 10686 10682 10681 10675 10671 10669 10666 10664 10661 10663 10666 10664 10669 10677 10685 10690 10694 10698 10703 10706 10710 10715 10720 10726 10731 10734 10738 10744 10745 10747 10749 10750 10752 10755 10751
10716 10709 10702 10695 10688 10682 10682 10679 10676 10670 10665 10662 10660 10656 10657 10656 10655 10652 10651 10653 10656 10664 10673 10678 10683 10688 10693 10698 10702 10706 10710 10715 10720 10722 10726 10730 10732 10734 10735 10736 10739 10740 10733
10700 10691 10685 10679 10671 10668 10666 10663 10659 10661 10659 10655 10647 10645 10645 10643 10641 10641 10645 10648 10650 10656 10663 10668 10673 10678 10684 10689 10693 10697 10701 10706 10709 10712 10715 10717 10719 10721 10721 10721 10722 10725 10717
10682 10674 10668 10664 10660 10657 10654 10652 10648 10646 10644 10642 10639 10636 10634 10630 10630 10632 10635 10640 10643 10649 10656 10660 10664 10670 10675 10680 10686 10688 10692 10695 10699 10702 10704 10705 10706 10706 10706 10708 10708 10708 10706
10660 10654 10650 10648 10647 10646 10644 10641 10639 10639 10639 10635 10631 10629 10628 10627 10626 10627 10628 10634 10638 10644 10649 10652 10656 10661 10666 10671 10676 10680 10684 10687 10689 10691 10692 10693 10693 10694 10694 10692 10694 10694 10692
10644 10639 10636 10637 10637 10637 10635 10634 10634 10631 10629 10627 10623 10620 10621 10620 10619 10620 10625 10632 10637 10640 10643 10647 10650 10654 10658 10663 10668 10673 10676 10678 10680 10680 10681 10681 10682 10682 10681 10680 10679 10677 10678
10630 10626 10626 10628 10629 10629 10626 10627 10626 10622 10619 10618 10618 10616 10616 10616 10618 10619 10623 10629 10633 10635 10636 10639 10642 10646 10651 10656 10659 10663 10665 10668 10669 10671 10672 10673 10673 10672 10670 10667 10664 10661 10659
10619 10618 10619 10619 10620 10619 10622 10621 10617 10616 10614 10614 10615 10615 10615 10616 10618 10618 10619 10622 10626 10629 10629 10631 10634 10638 10643 10646 10649 10652 10654 10657 10659 10660 10661 10662 10662 10660 10657 10654 10652 10648 10644
10609 10610 10611 10612 10613 10614 10618 10614 10612 10611 10612 10613 10614 10615 10614 10615 10614 10615 10616 10618 10619 10621 10622 10624 10627 10631 10634 10637 10640 10643 10645 10647 10648 10649 10651 10651 10649 10647 10644 10642 10639 10636 10631
10601 10603 10605 10605 10607 10608 10612 10612 10610 10609 10610 10612 10614 10612 10609 10611 10614 10612 10613 10615 10615 10616 10617 10619 10622 10626 10628 10630 10632 10634 10637 10638 10638 10639 10641 10640 10637 10635 10632 10630 10628 10625 10622
10595 10599 10601 10602 10603 10605 10606 10607 10609 10608 10608 10608 10609 10607 10604 10606 10607 10611 10612 10614 10614 10614 10614 10616 10619 10621 10623 10624 10625 10626 10627 10627 10627 10629 10630 10629 10628 10625 10623 10620 10619 10617 10614
10590 10593 10595 10596 10596 10597 10599 10598 10600 10599 10601 10602 10602 10604 10602 10596 10600 10606 10608 10609 10610 10609 10610 10611 10612 10614 10615 10617 10617 10618 10618 10617 10618 10618 10619 10620 10617 10613 10611 10609 10609 10609 10609
10582 10583 10585 10586 10586 10588 10590 10591 10590 10589 10591 10594 10596 10596 10596 10598 10599 10600 10602 10603 10603 10602 10602 10603 10604 10605 10606 10607 10607 10607 10606 10604 10605 10607 10608 10606 10603 10605 10600 10601 10598 10598 10601
10574 10575 10576 10578 10578 10579 10579 10579 10579 10580 10581 10583 10586 10587 10588 10589 10591 10593 10592 10593 10592 10593 10593 10593 10594 10594 10594 10594 10594 10594 10592 10592 10592 10592 10594 10593 10591 10593 10590 10592 10596 10597 10593
10567 10568 10568 10569 10569 10569 10570 10571 10570 10569 10570 10572 10573 10575 10576 10577 10578 10579 10580 10580 10579 10581 10582 10582 10581 10580 10581 10581 10580 10580 10579 10580 10580 10576 10579 10579 10578 10580 10581 10581 10584 10586 10585
10559 10559 10560 10560 10560 10560 10560 10560 10559 10559 10559 10561 10561 10562 10562 10562 10563 10565 10565 10565 10564 10567 10567 10566 10566 10566 10567 10568 10566 10565 10565 10566 10568 10561 10559 10565 10565 10564 10568 10569 10570 10571 10570